Simultaneous Nadir Overpasses (SNOs) Predictions

Prediction of SNOs between GOES-15 and LANDSAT-8 Satellite Orbit:

Table of predicted SNOs for the next 14.0 days since TLE Epoch: 12/14/2019
Index Date Time (GOES-15) GOES-15 Lat,Lon LANDSAT-8 Lat,Lon Distance(km) Time Diff (sec)
1 12/15/2019 18:43:04 -0.12,-127.97 -0.14,-127.95 3.49 80
2 12/17/2019 18:30:52 -0.11,-127.90 -0.74,-124.99 331.23 80
3 12/18/2019 06:54:56 0.10,-127.89 -0.37,-130.18 260.07 80
4 12/20/2019 06:40:04 0.10,-127.81 0.24,-127.22 67.99 80
5 12/22/2019 06:27:52 0.10,-127.73 0.85,-124.26 395.64 80
6 12/22/2019 18:51:47 -0.09,-127.70 0.27,-129.41 193.68 80
7 12/24/2019 18:36:55 -0.09,-127.62 -0.34,-126.44 133.40 80
8 12/25/2019 07:00:58 0.08,-127.61 -0.77,-131.64 457.79 80
9 12/26/2019 18:25:15 -0.09,-127.53 -0.95,-123.48 460.08 48
10 12/27/2019 06:48:46 0.08,-127.52 -0.15,-128.67 131.23 80




NCC Satellite Simultaneous Nadir Overpasses (SNOs) Prediction Service
